Wind_Speed
21 21 22 22 22 23 24 25 26 25 26 26 28 28 29 30 30 31 32 32 33 33 34 34 35 35 36 36 36 37 37 37 36 36 35 34 34 34 33 33 32 32 31 31
23 23 24 24 24 25 26 27 27 28 28 28 29 30 30 31 32 33 33 34 34 35 35 35 35 36 35 36 36 36 36 36 36 35 34 33 33 33 32 32 32 32 32 31
26 26 27 26 26 27 28 28 29 29 29 30 31 32 31 32 33 33 34 35 35 36 35 36 36 35 35 35 36 35 35 35 35 34 34 34 33 32 32 32 32 32 32 32
29 29 30 29 28 29 29 29 30 30 31 31 32 32 32 32 33 33 34 35 36 35 35 35 35 35 35 36 36 35 35 34 33 33 33 33 33 32 32 32 31 32 32 32
32 32 32 30 30 30 30 30 31 31 31 32 32 32 32 33 33 34 34 34 35 35 35 35 35 35 35 35 35 35 34 33 32 32 32 32 31 31 31 30 30 30 30 30
33 34 34 32 32 33 33 32 32 32 32 33 33 33 32 33 34 34 34 35 34 34 35 35 35 35 34 34 34 34 33 32 31 31 31 30 30 29 29 29 29 29 29 29
34 36 36 34 34 34 35 35 35 35 35 35 35 34 34 34 35 35 35 35 35 34 34 34 33 33 32 32 32 32 31 31 30 30 30 30 29 29 28 28 28 28 28 29
37 38 37 36 36 36 36 37 37 36 36 37 36 36 36 35 35 36 36 36 35 35 34 33 32 32 31 31 31 31 31 30 29 28 28 28 28 29 28 28 28 28 27 28
40 39 38 38 37 37 38 38 38 38 38 37 37 37 37 36 36 36 36 36 35 34 34 32 32 31 31 31 31 31 30 29 28 28 27 26 26 27 27 28 28 28 28 27
41 40 39 39 39 39 39 39 39 38 38 38 38 38 37 37 37 37 36 36 35 35 34 32 31 31 31 31 31 30 29 28 28 28 27 26 27 27 27 27 28 28 28 28
42 41 41 40 40 40 40 40 39 39 40 39 38 38 38 38 37 37 36 36 36 35 34 33 32 32 32 31 31 30 29 28 28 27 27 27 27 26 27 27 28 28 28 29
43 41 43 42 41 41 42 41 40 40 40 39 39 39 39 38 38 37 37 37 36 35 35 34 32 32 32 31 31 30 29 28 28 28 27 27 27 27 27 28 28 28 28 29
43 42 43 43 42 42 42 42 41 41 41 40 39 39 38 38 38 38 38 37 36 36 35 35 33 33 32 32 31 30 29 29 28 28 28 28 28 28 28 28 28 29 30 30
42 42 43 42 42 41 41 41 41 40 40 39 38 38 37 37 37 37 37 36 36 35 35 34 34 33 33 32 31 31 30 29 29 29 28 28 29 29 29 29 30 30 31 31
41 41 41 41 40 40 40 40 40 40 39 39 38 38 37 36 36 36 36 35 34 33 33 33 32 32 32 32 31 30 30 29 29 29 29 29 30 30 30 31 31 32 32 32
40 40 41 40 39 39 39 40 40 39 38 38 37 36 36 35 35 35 34 34 33 32 32 31 31 31 31 30 30 29 29 29 29 29 29 30 30 31 31 31 32 32 33 33
39 39 39 38 38 38 38 38 38 37 36 36 35 35 34 35 35 34 34 33 32 31 31 31 30 30 30 30 30 29 29 29 29 30 30 30 31 32 32 33 33 33 34 34
38 38 38 38 39 38 38 37 37 36 36 35 34 34 34 34 34 35 34 33 33 32 32 32 31 31 31 30 30 30 30 30 31 31 31 32 32 33 33 34 35 34 34 34
37 37 37 37 37 37 37 37 37 36 36 36 35 35 35 35 35 34 34 34 33 33 33 33 33 32 32 31 32 32 32 32 32 32 33 33 34 34 34 35 35 34 34 34
37 37 37 38 38 38 38 38 38 37 37 36 36 37 36 36 36 36 35 35 35 35 35 34 34 33 33 34 33 33 33 33 34 34 34 34 35 35 35 35 35 35 34 34
37 37 38 38 38 38 38 39 39 38 38 37 37 37 36 36 36 36 36 35 35 36 35 35 35 35 35 35 35 35 35 35 35 36 36 35 35 35 35 35 35 35 34 34
36 36 36 37 37 37 37 38 38 38 38 37 37 36 36 36 36 36 36 36 35 35 35 36 36 36 36 36 36 36 36 36 36 37 37 36 36 36 36 36 35 35 35 35
36 36 36 37 37 37 37 37 37 37 37 36 35 35 35 35 35 35 34 35 35 35 36 36 36 36 36 36 36 36 36 36 37 37 36 36 36 36 36 35 35 35 35 35
36 36 36 36 37 37 37 37 38 37 36 35 35 35 35 34 34 34 34 34 35 35 35 36 36 36 36 36 36 36 36 35 35 35 35 35 35 34 34 33 33 33 33 34
36 36 36 36 36 36 36 37 37 36 36 35 35 34 34 34 34 35 35 34 35 35 35 35 36 36 36 36 36 35 35 34 34 33 33 33 32 32 32 32 33 33 33 33
36 36 36 35 34 34 35 35 34 34 34 34 33 33 34 34 34 34 35 35 35 35 35 35 35 35 35 34 33 33 33 33 32 31 31 31 31 31 31 32 32 32 32 32
36 35 35 34 34 34 34 34 33 32 32 32 32 32 32 33 33 33 33 33 33 33 33 33 33 32 32 32 31 31 31 31 30 30 30 30 30 31 31 31 31 31 30 30
Wind_Direction
291 288 286 284 284 283 283 283 283 283 283 282 280 278 277 278 280 281 282 282 281 281 282 282 281 281 281 282 282 282 282 282 282 282 282 282 283 283 283 283 282 281 279 277
289 288 286 285 286 284 282 283 284 283 284 283 281 280 280 281 282 282 283 282 283 283 283 282 282 282 282 282 283 283 283 283 282 281 281 281 282 282 282 284 283 281 279 277
288 286 285 287 288 287 285 284 284 285 285 283 282 282 282 282 283 284 284 284 284 284 284 283 282 282 283 283 284 285 285 285 283 280 280 281 282 281 281 283 282 281 280 278
289 287 287 291 290 290 288 285 284 284 285 283 283 284 285 284 285 285 285 285 285 285 284 284 283 283 283 284 285 285 285 284 282 281 280 279 280 281 281 282 282 282 281 279
288 287 287 288 289 290 289 287 286 285 285 284 284 285 286 285 286 286 286 287 287 286 285 285 284 283 284 284 284 284 284 283 283 282 280 278 279 280 281 282 283 284 284 282
287 287 287 289 289 290 288 287 286 286 287 287 287 287 286 287 286 286 286 287 288 287 286 286 285 284 284 284 284 284 283 282 283 282 279 278 278 279 280 281 283 284 284 283
285 285 286 289 289 289 288 288 287 288 288 288 289 288 288 288 287 287 287 287 287 288 287 287 286 285 284 285 285 285 284 283 282 281 280 279 278 278 279 281 284 286 285 285
283 284 287 288 288 287 287 286 286 287 287 287 288 288 288 287 287 287 287 286 287 287 287 286 285 285 284 284 285 285 285 284 283 281 280 280 279 277 278 281 284 286 286 286
282 284 285 285 285 285 285 285 285 285 285 286 286 286 287 287 286 285 285 285 286 286 286 285 284 284 284 284 285 285 284 283 282 280 279 280 281 279 279 281 283 286 287 287
282 283 283 283 283 283 283 283 284 283 283 284 283 284 285 285 284 284 284 285 285 284 284 284 284 283 283 284 284 283 282 281 282 281 279 280 280 279 280 281 283 285 285 286
281 282 282 282 282 281 281 281 282 282 282 283 283 282 282 283 283 283 283 283 282 281 282 282 283 282 283 283 283 282 281 280 281 280 280 281 282 281 281 282 284 284 285 285
280 281 281 282 281 281 281 281 281 281 281 281 282 282 281 281 281 282 282 282 281 280 281 282 282 282 281 282 282 280 279 279 280 280 280 282 282 282 281 281 283 285 285 285
279 279 279 280 279 280 280 281 281 281 281 280 281 282 281 281 281 280 282 282 281 280 280 280 280 281 281 281 280 279 278 279 279 280 280 281 282 282 282 282 282 284 285 286
277 277 278 278 279 279 279 280 280 280 280 280 280 280 280 280 281 280 281 282 281 280 280 279 279 279 280 280 279 278 277 278 278 278 279 280 282 283 283 283 284 285 285 285
276 277 277 277 278 279 279 279 278 278 278 279 279 279 280 280 279 279 280 281 279 277 278 279 278 278 279 280 279 278 277 277 277 277 278 279 281 283 285 285 285 286 285 285
276 276 277 277 277 278 278 279 279 278 278 278 278 279 279 278 278 277 278 279 277 276 277 277 278 279 279 279 279 277 277 277 277 277 278 279 281 283 284 286 286 286 286 285
276 277 277 277 276 277 278 278 278 278 278 278 277 278 278 278 277 276 276 277 276 276 277 278 278 278 279 279 279 278 277 278 279 278 279 280 281 283 284 286 286 286 286 286
275 276 276 276 275 275 275 276 278 278 278 277 276 277 278 278 278 276 275 276 276 276 277 277 277 277 278 278 278 278 277 278 279 280 280 281 282 284 285 286 286 286 285 285
274 275 275 276 276 276 276 277 278 278 279 278 277 277 277 278 277 276 274 275 276 275 275 275 276 276 277 277 278 278 279 279 280 280 281 282 283 284 285 285 286 286 286 285
275 275 275 276 277 277 277 277 278 278 278 278 277 276 276 277 276 275 274 274 275 275 274 275 275 276 277 277 278 278 279 279 279 280 282 282 283 284 285 285 285 286 286 285
277 276 275 274 275 276 276 276 277 277 277 277 276 276 276 276 275 274 274 274 274 274 275 275 275 276 277 277 277 278 279 279 279 280 281 282 283 284 284 285 285 285 285 286
279 277 275 275 276 276 276 276 277 277 276 276 275 276 276 275 274 274 274 274 273 274 274 275 276 276 276 277 278 278 279 279 279 280 280 281 282 283 284 284 284 285 286 286
280 279 278 278 279 279 279 278 278 278 277 275 275 275 275 274 273 273 272 272 273 274 275 276 276 276 276 277 278 278 279 280 280 280 280 281 282 283 284 284 284 285 286 287
279 280 280 280 280 281 281 279 279 278 277 275 274 274 274 273 272 272 273 273 274 274 276 277 277 277 277 278 279 280 280 281 281 281 281 282 282 282 283 283 284 285 286 287
278 279 280 281 281 281 281 280 279 279 277 275 275 274 274 274 273 273 274 274 275 276 277 278 279 279 279 279 280 279 280 281 282 282 282 281 281 282 283 284 285 285 286 287
277 278 280 280 280 281 280 279 278 277 276 275 274 274 273 274 275 275 275 275 277 278 278 280 280 280 279 279 279 279 281 282 283 282 281 281 281 282 283 285 285 285 286 286
278 278 278 278 279 280 280 279 278 278 277 276 274 273 273 275 275 276 276 277 278 278 279 280 281 280 280 279 279 280 281 281 281 281 281 281 283 284 285 286 287 286 286 287
Height
5669 5667 5666 5666 5665 5664 5662 5661 5660 5661 5659 5659 5656 5655 5654 5653 5652 5650 5649 5647 5646 5644 5642 5640 5638 5637 5635 5633 5631 5629 5628 5626 5624 5622 5620 5618 5617 5615 5613 5612 5610 5609 5607 5606
5663 5662 5660 5659 5660 5658 5656 5655 5653 5652 5652 5651 5649 5647 5646 5645 5643 5642 5640 5638 5637 5635 5633 5631 5629 5627 5625 5623 5621 5619 5617 5615 5613 5612 5610 5608 5607 5605 5604 5603 5601 5599 5598 5596
5656 5655 5653 5653 5653 5651 5650 5648 5646 5645 5646 5643 5641 5639 5638 5636 5635 5633 5631 5629 5627 5625 5623 5621 5619 5617 5615 5613 5611 5609 5607 5605 5603 5601 5600 5599 5597 5596 5595 5593 5591 5590 5588 5587
5647 5647 5645 5649 5645 5643 5641 5640 5638 5637 5636 5634 5632 5631 5629 5627 5626 5624 5622 5620 5618 5616 5614 5612 5609 5607 5605 5603 5601 5599 5597 5595 5593 5592 5591 5589 5588 5587 5585 5584 5582 5580 5578 5577
5639 5637 5637 5639 5637 5634 5632 5631 5630 5628 5626 5625 5623 5622 5621 5618 5616 5614 5612 5610 5608 5606 5604 5602 5599 5597 5595 5593 5591 5589 5587 5585 5584 5582 5581 5580 5579 5577 5576 5575 5573 5571 5569 5567
5631 5629 5628 5631 5628 5625 5624 5623 5621 5619 5617 5615 5614 5613 5613 5609 5607 5605 5602 5600 5598 5596 5594 5592 5589 5587 5585 5583 5581 5579 5577 5576 5574 5573 5572 5571 5570 5568 5567 5566 5564 5562 5560 5559
5622 5619 5619 5622 5619 5617 5616 5615 5611 5609 5607 5606 5604 5603 5602 5599 5597 5594 5592 5590 5588 5586 5584 5582 5579 5577 5576 5574 5572 5570 5568 5567 5565 5564 5562 5561 5560 5559 5558 5557 5556 5554 5552 5550
5612 5610 5613 5611 5608 5607 5605 5603 5601 5599 5597 5596 5594 5592 5591 5589 5587 5585 5582 5580 5578 5576 5574 5572 5570 5568 5566 5565 5563 5561 5559 5558 5556 5555 5553 5552 5551 5550 5550 5548 5547 5545 5543 5542
5603 5604 5602 5599 5597 5595 5593 5592 5590 5589 5587 5585 5584 5583 5581 5579 5577 5575 5572 5570 5568 5566 5564 5563 5560 5559 5557 5555 5553 5552 5550 5549 5548 5546 5545 5544 5543 5542 5541 5540 5539 5537 5535 5533
5590 5591 5590 5588 5586 5584 5582 5581 5579 5578 5576 5575 5573 5572 5570 5569 5566 5564 5562 5560 5558 5556 5555 5553 5551 5549 5548 5546 5544 5543 5542 5540 5539 5538 5537 5535 5534 5533 5532 5531 5530 5528 5527 5525
5578 5579 5577 5577 5575 5573 5571 5569 5568 5567 5565 5564 5562 5561 5559 5558 5556 5554 5552 5550 5548 5546 5545 5543 5541 5540 5538 5537 5535 5534 5533 5532 5530 5529 5528 5527 5526 5525 5524 5522 5521 5520 5518 5517
5566 5567 5563 5564 5562 5560 5558 5557 5556 5555 5554 5553 5551 5549 5548 5546 5544 5543 5541 5539 5537 5536 5534 5533 5532 5530 5529 5528 5526 5525 5524 5523 5522 5521 5520 5519 5518 5516 5515 5514 5512 5511 5509 5508
5554 5553 5551 5550 5550 5548 5546 5545 5544 5543 5542 5541 5539 5538 5536 5535 5533 5532 5530 5528 5527 5525 5524 5523 5522 5521 5519 5518 5517 5516 5515 5514 5513 5512 5511 5510 5509 5508 5506 5505 5503 5501 5500 5498
5541 5539 5537 5537 5537 5536 5534 5533 5532 5531 5530 5528 5527 5526 5525 5523 5522 5521 5519 5518 5516 5515 5514 5513 5512 5511 5509 5508 5507 5506 5505 5505 5504 5503 5502 5501 5500 5499 5497 5496 5494 5492 5491 5489
5528 5526 5525 5524 5524 5523 5522 5520 5519 5519 5518 5517 5516 5514 5513 5512 5511 5510 5508 5507 5506 5505 5504 5502 5501 5500 5499 5498 5497 5497 5496 5495 5494 5493 5492 5492 5490 5489 5488 5486 5485 5483 5481 5479
5515 5514 5513 5512 5511 5510 5509 5508 5507 5507 5506 5505 5504 5503 5502 5501 5500 5499 5498 5496 5496 5495 5494 5492 5492 5491 5490 5489 5488 5487 5486 5485 5484 5484 5483 5482 5480 5479 5478 5476 5475 5473 5471 5469
5503 5502 5501 5500 5499 5498 5497 5496 5495 5495 5494 5493 5492 5491 5490 5489 5489 5488 5487 5486 5485 5485 5484 5483 5482 5481 5480 5479 5478 5478 5477 5476 5475 5474 5473 5472 5471 5469 5468 5466 5465 5463 5461 5459
5490 5490 5489 5488 5487 5486 5486 5484 5484 5483 5482 5481 5481 5480 5479 5478 5478 5477 5476 5476 5475 5475 5474 5473 5472 5471 5470 5469 5469 5468 5467 5466 5465 5464 5463 5462 5460 5459 5457 5456 5454 5452 5450 5448
5479 5478 5477 5476 5475 5475 5474 5473 5472 5472 5471 5470 5469 5469 5468 5467 5467 5466 5466 5465 5465 5464 5464 5463 5462 5461 5460 5459 5458 5457 5456 5455 5454 5453 5452 5451 5449 5448 5446 5445 5443 5441 5439 5438
5467 5466 5466 5465 5464 5463 5463 5462 5461 5460 5459 5458 5458 5457 5457 5456 5456 5455 5455 5455 5454 5453 5453 5452 5451 5451 5450 5449 5448 5447 5446 5445 5443 5442 5441 5440 5438 5437 5435 5433 5432 5430 5428 5427
5456 5455 5454 5453 5452 5452 5451 5450 5449 5448 5448 5447 5446 5445 5445 5445 5444 5443 5443 5443 5443 5442 5441 5441 5440 5439 5438 5437 5437 5436 5435 5433 5432 5431 5429 5428 5427 5425 5424 5422 5420 5419 5417 5416
5444 5443 5442 5441 5441 5440 5439 5438 5437 5436 5435 5435 5434 5433 5433 5433 5432 5432 5432 5432 5431 5431 5430 5430 5429 5428 5427 5426 5425 5424 5423 5422 5420 5419 5418 5416 5415 5413 5412 5410 5409 5407 5406 5404
5432 5431 5430 5429 5428 5427 5427 5426 5425 5424 5423 5423 5422 5422 5421 5421 5420 5420 5421 5420 5420 5419 5419 5418 5417 5416 5415 5414 5414 5413 5411 5410 5409 5407 5406 5404 5403 5401 5400 5398 5397 5396 5394 5393
5421 5420 5419 5418 5417 5416 5415 5414 5413 5412 5411 5411 5411 5410 5410 5410 5410 5409 5409 5409 5409 5408 5408 5407 5406 5405 5403 5403 5402 5401 5400 5399 5397 5395 5394 5392 5391 5389 5388 5387 5385 5384 5383 5382
5409 5408 5407 5406 5405 5404 5403 5402 5401 5400 5400 5399 5400 5399 5398 5398 5398 5399 5398 5398 5397 5397 5396 5396 5395 5393 5392 5391 5391 5390 5389 5388 5386 5384 5383 5381 5380 5379 5377 5376 5375 5374 5373 5371
5398 5397 5396 5395 5394 5393 5392 5391 5390 5389 5388 5388 5389 5388 5388 5387 5387 5387 5387 5387 5386 5386 5385 5385 5383 5382 5381 5380 5379 5379 5378 5376 5375 5374 5372 5371 5370 5369 5368 5367 5365 5364 5362 5361
5387 5386 5385 5384 5384 5382 5381 5380 5379 5379 5378 5377 5378 5378 5377 5377 5377 5377 5376 5376 5375 5375 5374 5373 5372 5371 5370 5369 5369 5368 5367 5366 5365 5364 5363 5362 5360 5359 5358 5357 5355 5354 5352 5351